{"data":{"norad_id":52462,"intl_designator":"2022-049M","name":"STARLINK-3903","alt_names":[],"object_type":"PAYLOAD","status":"ACTIVE","operator":null,"country":"US","launch_date":"2022-05-06","launch_site_code":"AFETR","launch_vehicle":null,"mission":null,"orbit_class":"UNKNOWN","rcs_meters":null,"size_class":null,"mass_kg":null,"dimensions":null,"purposes":["comms"],"wikipedia_slug":null,"has_3d_model":false,"image_url":null,"decayed_at":null,"tle_current":{"epoch":"2026-05-24T23:28:37.516800Z","epoch_age_seconds":70880,"freshness":"FRESH","line1":"1 52462U 22049M   26144.97821200 -.00000687  00000+0 -25072-4 0  9994","line2":"2 52462  53.2138  76.6574 0001445  89.3735 270.7422 15.08835361223761","mean_motion":15.08835361,"eccentricity":0.0001445,"inclination_deg":53.2138,"raan_deg":76.6574,"arg_perigee_deg":89.3735,"mean_anomaly_deg":270.7422,"bstar":-2.5072e-5,"rev_number":22376,"period_min":95.437848105947,"perigee_km":538.75793280241,"apogee_km":540.75720433273,"semimajor_km":6917.8945685676,"source":"CELESTRAK","updated_at":"2026-05-25T13:38:17.149616Z"}}}